Date,Time,Wetness (Wet Dry or Ice),Wind Speed (m/s),Temperature (C),Humidity (%),Pressure (mb),Radiation (W/m^2)
2017-11-22,05:05:00,DRY,9.95,4.25,53.5,769.00,1.0
2017-11-22,05:10:00,WET,9.17,4.80,59.7,769.00,1.2
2017-11-22,05:15:00,WET,7.35,5.10,50.5,769.00,1.4
2017-11-22,05:20:00,DRY,7.97,5.00,48.7,769.00,1.3
2017-11-22,05:25:00,DRY,7.70,4.85,49.5,769.00,1.4
2017-11-22,05:30:00,DRY,7.97,4.63,50.7,769.00,1.4
2017-11-22,05:35:00,DRY,5.65,4.50,53.0,769.00,1.2
2017-11-22,05:40:00,DRY,7.80,4.63,53.0,769.00,1.4
2017-11-22,05:45:00,DRY,7.25,5.25,53.5,769.00,1.0
2017-11-22,05:50:00,DRY,8.00,5.73,42.7,769.00,1.1
2017-11-22,05:55:00,DRY,7.20,5.75,37.5,769.00,1.2
2017-11-22,06:00:00,DRY,7.37,5.93,34.7,769.00,1.4
2017-11-22,06:05:00,DRY,5.80,5.70,36.5,769.00,1.6
2017-11-22,06:10:00,DRY,8.40,5.53,34.3,769.00,1.9
2017-11-22,06:15:00,DRY,6.90,5.75,32.0,769.00,1.9
2017-11-22,06:20:00,DRY,6.80,5.53,31.7,769.00,0.9
2017-11-22,06:25:00,DRY,5.50,5.65,31.5,769.00,0.9
2017-11-22,06:30:00,DRY,8.37,5.43,31.7,769.00,1.1
2017-11-22,06:35:00,DRY,6.30,5.35,30.0,769.00,1.1
2017-11-22,06:40:00,DRY,7.27,5.33,31.3,769.00,1.2
2017-11-22,06:45:00,DRY,7.30,5.30,31.0,769.00,1.1
2017-11-22,06:50:00,DRY,7.67,5.27,30.0,769.00,1.2
2017-11-22,06:55:00,DRY,6.75,5.25,29.5,769.00,1.1
2017-11-22,07:00:00,DRY,7.97,5.17,30.7,769.00,0.9
2017-11-22,07:05:00,DRY,9.45,5.30,31.0,769.00,1.0
2017-11-22,07:10:00,DRY,9.30,5.30,30.3,769.00,1.3
2017-11-22,07:15:00,DRY,7.70,5.00,33.0,769.00,1.1
2017-11-22,07:20:00,DRY,9.53,5.13,32.0,769.00,1.3
2017-11-22,07:25:00,DRY,10.80,5.60,32.0,769.00,1.6
2017-11-22,07:30:00,DRY,9.67,5.43,32.3,769.00,2.3
2017-11-22,07:35:00,DRY,7.15,5.85,31.5,769.00,3.3
2017-11-22,07:40:00,DRY,10.07,5.77,32.3,769.00,5.5
2017-11-22,07:45:00,DRY,6.60,5.90,32.5,769.50,8.9
2017-11-22,07:50:00,DRY,9.53,6.10,32.0,769.33,12.2
2017-11-22,07:55:00,DRY,8.30,6.15,32.5,769.00,14.9
2017-11-22,08:00:00,DRY,8.00,6.27,34.3,769.00,16.1
2017-11-22,08:05:00,DRY,7.20,6.20,33.5,769.50,18.0
2017-11-22,08:10:00,DRY,7.23,6.07,34.0,769.33,21.5
2017-11-22,08:15:00,DRY,6.75,5.85,33.0,769.50,24.4
2017-11-22,08:20:00,DRY,6.70,5.60,32.7,769.67,108.5
2017-11-22,08:25:00,DRY,6.80,5.65,33.0,770.00,155.1
2017-11-22,08:30:00,DRY,7.27,5.77,33.0,770.00,174.5
2017-11-22,08:35:00,DRY,6.10,5.85,34.0,770.00,190.7
2017-11-22,08:40:00,DRY,5.30,5.73,36.0,770.00,211.4
2017-11-22,08:45:00,DRY,6.80,5.90,37.0,770.00,225.4
2017-11-22,08:50:00,DRY,5.57,5.97,36.3,770.00,250.1
2017-11-22,08:55:00,DRY,5.45,6.10,38.5,770.00,330.9
2017-11-22,09:00:00,DRY,6.00,6.30,42.0,770.00,216.0
2017-11-22,09:05:00,DRY,7.75,6.25,43.0,770.00,180.9
2017-11-22,09:10:00,DRY,6.73,6.50,48.7,770.00,160.3
2017-11-22,09:15:00,DRY,7.25,6.50,62.0,770.00,162.6
2017-11-22,09:20:00,DRY,7.90,6.63,69.3,770.00,170.5
2017-11-22,09:25:00,DRY,5.25,6.65,71.0,770.00,291.3
2017-11-22,09:30:00,DRY,5.80,7.03,58.3,770.00,398.8
2017-11-22,09:35:00,DRY,6.10,7.10,64.0,770.00,374.6
2017-11-22,09:40:00,DRY,6.13,6.93,59.3,770.00,278.0
2017-11-22,09:45:00,DRY,6.85,7.05,61.0,770.00,338.9
2017-11-22,09:50:00,DRY,5.33,7.13,61.0,770.00,375.2
2017-11-22,09:55:00,DRY,5.25,7.50,56.0,770.00,373.6
2017-11-22,10:00:00,DRY,5.17,7.37,63.0,770.67,446.2
2017-11-22,10:05:00,DRY,3.65,7.25,59.5,770.50,400.1
2017-11-22,10:10:00,DRY,4.50,7.40,58.7,771.00,538.8
2017-11-22,10:15:00,DRY,4.25,7.40,58.0,770.00,593.5
2017-11-22,10:20:00,DRY,6.23,7.23,56.7,770.67,546.1
2017-11-22,10:25:00,DRY,3.55,7.50,61.0,771.00,669.0
2017-11-22,10:30:00,DRY,4.37,7.63,63.7,771.00,368.2
2017-11-22,10:35:00,DRY,3.90,7.60,72.0,771.00,585.7
2017-11-22,10:40:00,DRY,3.93,7.90,71.3,771.00,543.8
2017-11-22,10:45:00,DRY,5.10,7.70,70.0,771.00,598.0
2017-11-22,10:50:00,DRY,5.10,7.73,75.0,771.00,466.1
2017-11-22,10:55:00,DRY,3.45,7.85,80.0,771.00,343.1
2017-11-22,11:00:00,DRY,4.53,7.33,85.0,771.00,232.7
2017-11-22,11:05:00,DRY,4.95,7.40,83.0,771.00,364.0
2017-11-22,11:10:00,DRY,2.40,7.50,82.7,771.00,313.0
2017-11-22,11:15:00,DRY,2.85,6.95,80.0,771.00,266.9
2017-11-22,11:20:00,DRY,2.13,6.90,82.3,771.00,235.1
2017-11-22,11:25:00,DRY,2.20,7.30,83.5,771.00,270.9
2017-11-22,11:30:00,DRY,3.03,7.20,84.7,771.00,169.7
2017-11-22,11:35:00,DRY,3.75,7.20,86.0,771.00,275.4
2017-11-22,11:40:00,DRY,1.90,7.37,83.3,771.00,228.4
2017-11-22,11:45:00,DRY,5.10,7.25,82.5,771.00,213.9
2017-11-22,11:50:00,DRY,4.23,7.03,87.0,771.00,473.0
2017-11-22,11:55:00,DRY,5.85,7.30,82.0,770.50,404.4
2017-11-22,12:00:00,DRY,5.30,7.37,82.0,770.67,486.7
2017-11-22,12:05:00,DRY,3.20,7.55,80.0,771.00,519.0
2017-11-22,12:10:00,DRY,2.67,7.47,81.0,771.00,224.8
2017-11-22,12:15:00,DRY,2.40,7.65,81.0,770.50,674.9
2017-11-22,12:20:00,DRY,3.13,7.43,80.7,770.33,353.2
2017-11-22,12:25:00,DRY,2.50,7.80,81.0,770.50,814.7
2017-11-22,12:30:00,DRY,4.33,8.33,74.0,770.00,667.8
2017-11-22,12:35:00,DRY,4.70,8.10,74.0,770.00,302.1
2017-11-22,12:40:00,DRY,4.10,8.10,76.0,770.00,608.5
2017-11-22,12:45:00,DRY,3.00,8.05,75.0,770.00,244.8
2017-11-22,12:50:00,DRY,5.00,7.53,82.0,770.00,175.5
2017-11-22,12:55:00,DRY,6.15,7.65,80.0,770.00,217.5
2017-11-22,13:00:00,DRY,3.57,7.57,83.3,770.00,418.3
2017-11-22,13:05:00,DRY,4.10,8.35,79.0,770.00,859.2
2017-11-22,13:10:00,DRY,4.20,8.33,80.7,770.00,384.0
2017-11-22,13:15:00,DRY,3.00,8.05,77.0,770.00,182.4
2017-11-22,13:20:00,DRY,4.80,7.73,81.3,770.00,169.7
2017-11-22,13:25:00,DRY,3.30,7.45,88.5,770.00,189.6
2017-11-22,13:30:00,DRY,6.40,7.60,88.0,770.00,104.1
2017-11-22,13:35:00,DRY,3.50,7.20,89.0,770.00,170.7
2017-11-22,13:40:00,DRY,4.73,7.33,88.0,770.00,206.3
2017-11-22,13:45:00,DRY,3.95,7.30,86.0,770.00,165.5
2017-11-22,13:50:00,DRY,5.83,7.27,89.0,770.00,186.2
2017-11-22,13:55:00,DRY,2.65,7.25,85.5,770.00,217.9
2017-11-22,14:00:00,DRY,4.47,7.20,92.0,770.00,179.0
2017-11-22,14:05:00,DRY,5.40,7.20,93.0,770.00,349.9
2017-11-22,14:10:00,DRY,2.53,6.97,92.7,770.00,211.5
2017-11-22,14:15:00,DRY,4.75,7.25,92.0,770.00,181.9
2017-11-22,14:20:00,DRY,5.20,7.03,92.3,770.00,326.6
2017-11-22,14:25:00,DRY,3.15,7.20,79.5,770.00,276.5
2017-11-22,14:30:00,DRY,4.23,7.63,80.3,770.00,558.9
2017-11-22,14:35:00,DRY,3.05,7.95,77.5,770.00,245.1
2017-11-22,14:40:00,DRY,3.37,7.23,87.3,770.00,184.5
2017-11-22,14:45:00,DRY,3.90,7.15,89.0,769.50,176.9
2017-11-22,14:50:00,DRY,3.10,7.20,90.0,769.67,181.0
2017-11-22,14:55:00,DRY,4.60,7.05,87.0,769.50,308.1
2017-11-22,15:00:00,DRY,3.47,7.23,89.3,769.33,179.6
2017-11-22,15:05:00,DRY,2.30,6.95,90.5,770.00,482.6
2017-11-22,15:10:00,DRY,3.17,7.27,83.3,769.00,386.1
2017-11-22,15:15:00,DRY,3.65,7.45,86.0,769.50,474.4
2017-11-22,15:20:00,DRY,3.17,7.67,80.0,769.00,616.8
2017-11-22,15:25:00,DRY,2.25,7.70,78.5,770.00,282.1
2017-11-22,15:30:00,DRY,3.13,7.57,84.7,769.33,378.9
2017-11-22,15:35:00,DRY,3.30,7.80,85.0,769.50,429.4
2017-11-22,15:40:00,DRY,3.30,7.67,80.0,769.00,533.1
2017-11-22,15:45:00,DRY,3.55,7.95,77.0,769.00,484.2
2017-11-22,15:50:00,DRY,3.20,7.20,84.7,769.33,226.4
2017-11-22,15:55:00,DRY,3.90,7.05,90.5,769.50,189.8
2017-11-22,16:00:00,DRY,4.80,6.70,86.7,769.00,193.9
2017-11-22,16:05:00,DRY,3.30,6.45,91.5,769.00,211.1
2017-11-22,16:10:00,DRY,4.50,6.80,91.0,769.00,396.4
2017-11-22,16:15:00,DRY,3.20,6.80,88.5,769.50,198.7
2017-11-22,16:20:00,DRY,3.77,6.57,90.3,769.33,279.9
2017-11-22,16:25:00,DRY,3.50,6.65,89.0,769.00,321.9
2017-11-22,16:30:00,DRY,6.10,6.67,86.3,769.00,257.0
2017-11-22,16:35:00,DRY,5.05,6.50,88.5,769.00,152.6
2017-11-22,16:40:00,DRY,4.63,6.47,92.7,769.00,243.3
2017-11-22,16:45:00,DRY,4.40,6.50,90.5,769.00,268.8
2017-11-22,16:50:00,DRY,4.20,6.77,79.3,769.00,293.2
2017-11-22,16:55:00,DRY,5.60,6.85,71.0,769.00,272.8
2017-11-22,17:00:00,DRY,5.00,6.77,81.0,769.00,264.3
2017-11-22,17:05:00,DRY,4.90,6.65,84.5,769.00,202.3
2017-11-22,17:10:00,DRY,4.30,6.63,86.0,769.00,222.1
2017-11-22,17:15:00,DRY,4.50,6.95,77.5,769.00,226.7
2017-11-22,17:20:00,DRY,4.23,7.63,56.7,769.00,181.3
2017-11-22,17:25:00,DRY,4.60,7.90,43.5,769.00,161.2
2017-11-22,17:30:00,DRY,4.57,8.17,40.7,769.00,143.7
2017-11-22,17:35:00,DRY,4.45,8.15,40.0,769.00,122.2
2017-11-22,17:40:00,DRY,5.80,8.40,34.7,769.00,98.0
2017-11-22,17:45:00,DRY,5.15,8.40,38.0,769.00,75.7
2017-11-22,17:50:00,DRY,3.87,8.27,40.3,769.00,56.4
2017-11-22,17:55:00,DRY,5.20,7.90,44.5,769.00,40.0
2017-11-22,18:00:00,DRY,5.27,8.00,44.3,769.00,26.9
2017-11-22,18:05:00,DRY,5.15,6.50,79.0,769.00,24.9
2017-11-22,18:10:00,DRY,4.87,6.10,82.3,769.00,15.2
2017-11-22,18:15:00,DRY,4.25,6.15,77.0,769.00,10.6
2017-11-22,18:20:00,DRY,5.33,6.00,89.0,769.00,21.3
2017-11-22,18:25:00,DRY,3.75,5.65,92.0,769.00,32.5
2017-11-22,18:30:00,DRY,4.00,5.77,79.7,769.00,5.3
2017-11-22,18:35:00,DRY,3.20,6.55,59.5,769.00,2.0
2017-11-22,18:40:00,DRY,3.17,6.53,62.0,769.00,1.8
2017-11-22,18:45:00,DRY,3.85,6.80,52.5,769.00,1.4
2017-11-22,18:50:00,DRY,3.13,6.87,53.0,769.00,2.1
2017-11-22,18:55:00,DRY,5.00,6.50,56.5,769.00,1.2
2017-11-22,19:00:00,DRY,5.90,6.20,70.0,769.00,1.6
2017-11-22,19:05:00,DRY,4.65,5.90,71.5,769.00,1.9
2017-11-22,19:10:00,DRY,3.73,6.10,61.7,769.00,1.9
2017-11-22,19:15:00,DRY,3.25,6.95,47.0,769.00,1.0
2017-11-22,19:20:00,DRY,4.47,5.97,65.3,769.00,1.8
2017-11-22,19:25:00,DRY,3.20,6.65,47.5,769.00,1.9
2017-11-22,19:30:00,DRY,4.87,6.40,60.7,769.33,1.4
2017-11-22,19:35:00,DRY,4.55,6.20,64.0,770.00,1.4
2017-11-22,19:40:00,DRY,4.60,5.60,70.7,769.33,32.2
2017-11-22,19:45:00,DRY,3.70,6.40,46.5,769.50,0.6
2017-11-22,19:50:00,DRY,4.77,6.83,39.7,769.67,1.1
2017-11-22,19:55:00,DRY,4.35,7.10,29.5,770.00,1.2
2017-11-22,20:00:00,DRY,3.70,7.27,33.3,770.00,0.9
2017-11-22,20:05:00,DRY,3.70,7.20,30.5,770.00,0.9
2017-11-22,20:10:00,DRY,4.13,7.23,30.3,770.00,1.2
2017-11-22,20:15:00,DRY,4.55,7.20,32.0,770.00,1.4
2017-11-22,20:20:00,DRY,4.17,7.53,27.7,770.00,0.9
2017-11-22,20:25:00,DRY,4.80,7.70,27.5,770.00,1.0
2017-11-22,20:30:00,DRY,4.03,7.83,26.7,770.00,1.1
2017-11-22,20:35:00,DRY,4.30,7.25,33.0,770.00,1.4
2017-11-22,20:40:00,DRY,4.77,7.47,27.7,770.00,1.2
2017-11-22,20:45:00,DRY,4.95,7.70,29.0,770.00,1.2
2017-11-22,20:50:00,DRY,4.70,7.43,29.7,770.00,1.6
2017-11-22,20:55:00,DRY,5.10,7.40,29.5,770.00,1.1
2017-11-22,21:00:00,DRY,4.57,7.13,36.7,770.00,1.3
2017-11-22,21:05:00,DRY,5.25,6.00,48.5,770.00,1.4
2017-11-22,21:10:00,DRY,5.83,6.43,41.0,770.00,1.1
2017-11-22,21:15:00,DRY,5.20,6.60,34.0,770.00,1.1
2017-11-22,21:20:00,DRY,6.40,7.07,30.7,770.00,1.3
2017-11-22,21:25:00,DRY,6.15,7.00,33.0,770.00,1.3
2017-11-22,21:30:00,DRY,7.67,6.60,37.7,770.00,1.3
2017-11-22,21:35:00,DRY,6.55,6.50,38.5,770.00,1.4
2017-11-22,21:40:00,DRY,6.40,6.95,28.5,770.00,1.4
2017-11-22,21:45:00,,,,,,
2017-11-22,21:50:00,,,,,,
2017-11-22,21:55:00,DRY,7.85,7.05,33.5,770.00,1.0
2017-11-22,22:00:00,DRY,6.07,6.63,38.3,770.00,1.2
2017-11-22,22:05:00,DRY,5.85,6.25,42.5,770.00,1.1
2017-11-22,22:10:00,DRY,6.43,5.70,54.7,770.00,1.4
2017-11-22,22:15:00,DRY,7.00,5.40,55.5,770.00,1.3
2017-11-22,22:20:00,DRY,7.43,5.37,54.3,770.00,1.3
2017-11-22,22:25:00,DRY,7.75,5.50,57.5,770.00,1.1
2017-11-22,22:30:00,DRY,6.30,5.47,57.7,770.00,2.0
2017-11-22,22:35:00,DRY,7.05,5.45,55.0,770.00,1.6
2017-11-22,22:40:00,DRY,7.40,5.97,41.3,770.00,1.2
2017-11-22,22:45:00,DRY,6.30,6.85,30.0,770.00,1.5
2017-11-22,22:50:00,DRY,7.83,6.33,40.0,770.00,1.3
2017-11-22,22:55:00,DRY,6.25,5.10,72.5,770.00,1.8
2017-11-22,23:00:00,DRY,6.63,5.27,59.0,770.00,1.7
2017-11-22,23:05:00,DRY,6.05,6.10,40.0,770.00,1.2
2017-11-22,23:10:00,DRY,5.50,5.00,71.0,770.00,1.8
2017-11-22,23:15:00,DRY,5.30,5.15,48.0,770.00,1.1
2017-11-22,23:20:00,DRY,7.47,6.23,36.3,770.00,1.4
2017-11-22,23:25:00,DRY,5.95,6.70,29.5,770.00,0.6
2017-11-22,23:30:00,DRY,7.03,6.70,29.7,770.00,1.3
2017-11-22,23:35:00,DRY,8.10,6.45,35.0,770.00,1.3
2017-11-22,23:40:00,DRY,8.10,6.47,32.3,770.00,1.2
2017-11-22,23:45:00,DRY,7.55,6.15,38.0,770.00,1.3
2017-11-22,23:50:00,DRY,7.73,5.80,46.3,770.00,1.3
2017-11-22,23:55:00,DRY,7.85,5.85,36.0,770.00,1.1
2017-11-23,00:00:00,DRY,6.17,6.40,31.7,770.00,1.4
2017-11-23,00:05:00,DRY,6.45,6.40,31.5,770.00,0.6
2017-11-23,00:10:00,DRY,8.03,6.20,36.3,770.00,1.3
2017-11-23,00:15:00,DRY,9.70,6.10,40.5,770.00,1.2
2017-11-23,00:20:00,DRY,7.57,6.07,41.7,770.00,1.3
2017-11-23,00:25:00,DRY,9.70,5.75,48.0,770.00,2.5
2017-11-23,00:30:00,DRY,8.60,5.70,51.0,770.00,1.6
2017-11-23,00:35:00,DRY,9.05,5.55,50.0,769.50,1.9
2017-11-23,00:40:00,DRY,8.73,5.53,58.0,769.33,1.5
2017-11-23,00:45:00,DRY,10.40,5.05,71.5,769.00,1.5
2017-11-23,00:50:00,DRY,8.37,4.93,77.0,769.00,1.8
2017-11-23,00:55:00,DRY,7.80,4.70,80.0,769.00,2.2
2017-11-23,01:00:00,DRY,9.27,4.60,84.3,769.00,3.2
2017-11-23,01:05:00,DRY,7.15,4.45,88.0,769.00,4.8
2017-11-23,01:10:00,DRY,9.60,4.57,86.3,769.00,5.2
2017-11-23,01:15:00,DRY,8.75,4.60,91.0,769.00,29.6
2017-11-23,01:20:00,DRY,9.10,4.60,92.7,769.00,102.5
2017-11-23,01:25:00,DRY,10.55,4.50,93.0,769.00,147.2
2017-11-23,01:30:00,DRY,10.37,4.63,94.0,769.00,236.6
2017-11-23,01:35:00,DRY,6.50,4.50,93.5,769.00,129.5
2017-11-23,01:40:00,DRY,8.37,4.63,92.3,769.00,102.9
2017-11-23,01:45:00,DRY,7.90,4.65,91.5,769.00,51.9
2017-11-23,01:50:00,DRY,12.40,4.60,92.7,768.67,90.2
2017-11-23,01:55:00,DRY,9.10,4.65,93.0,769.00,76.2
2017-11-23,02:00:00,DRY,9.67,4.63,93.0,768.67,54.9
2017-11-23,02:05:00,DRY,13.20,4.65,92.5,768.50,70.2
2017-11-23,02:10:00,DRY,11.70,4.67,93.0,768.00,87.9
2017-11-23,02:15:00,DRY,10.30,4.75,93.5,768.50,195.5
2017-11-23,02:20:00,DRY,8.43,4.83,94.0,768.67,285.6
2017-11-23,02:25:00,DRY,9.25,4.90,94.0,768.50,386.4
2017-11-23,02:30:00,DRY,10.60,4.67,94.0,768.00,352.1
2017-11-23,02:35:00,DRY,9.40,4.85,94.0,769.00,369.2
2017-11-23,02:40:00,DRY,8.53,4.80,94.0,768.67,368.6
2017-11-23,02:45:00,DRY,9.50,4.70,94.0,768.50,479.4
2017-11-23,02:50:00,DRY,9.80,5.13,94.0,768.67,554.2
2017-11-23,02:55:00,DRY,9.90,5.25,94.0,768.50,592.2
2017-11-23,03:00:00,DRY,9.67,5.13,94.7,768.67,510.7
2017-11-23,03:05:00,DRY,9.30,5.50,95.0,768.00,557.4
2017-11-23,03:10:00,DRY,8.07,5.23,95.0,768.67,496.5
2017-11-23,03:15:00,DRY,10.45,5.10,95.0,768.50,362.8
2017-11-23,03:20:00,DRY,8.17,4.83,95.0,768.67,279.2
2017-11-23,03:25:00,DRY,7.05,5.25,95.0,769.00,329.7
2017-11-23,03:30:00,DRY,9.27,5.23,95.0,769.00,348.4
2017-11-23,03:35:00,DRY,8.85,5.10,95.0,769.00,320.1
2017-11-23,03:40:00,DRY,7.20,5.30,95.0,769.00,273.5
2017-11-23,03:45:00,DRY,11.20,5.00,95.0,769.00,252.7
2017-11-23,03:50:00,DRY,8.93,5.10,95.0,769.00,221.0
2017-11-23,03:55:00,DRY,8.95,5.15,95.0,769.00,241.4
2017-11-23,04:00:00,DRY,10.93,5.20,95.0,769.00,201.5
2017-11-23,04:05:00,DRY,10.40,5.00,95.0,769.00,205.0
2017-11-23,04:10:00,DRY,10.07,4.83,95.0,768.67,140.4
2017-11-23,04:15:00,DRY,8.10,4.80,95.0,769.00,122.9
2017-11-23,04:20:00,DRY,9.63,4.77,94.7,769.00,106.6
2017-11-23,04:25:00,DRY,9.90,4.85,90.5,769.00,85.9
2017-11-23,04:30:00,DRY,8.73,4.97,89.0,768.67,73.2
2017-11-23,04:35:00,DRY,9.00,4.90,90.5,768.50,63.4
2017-11-23,04:40:00,DRY,8.47,5.03,88.0,769.00,46.4
2017-11-23,04:45:00,DRY,8.00,5.05,86.0,768.50,32.5
2017-11-23,04:50:00,DRY,8.93,5.00,86.0,768.00,29.5
2017-11-23,04:55:00,DRY,9.70,5.00,85.5,768.00,26.8
2017-11-23,05:00:00,DRY,11.43,4.93,85.7,768.00,26.1
2017-11-23,05:05:00,DRY,10.90,5.00,86.0,768.00,24.6
2017-11-23,05:10:00,DRY,6.20,4.97,88.0,768.00,30.4
2017-11-23,05:15:00,DRY,10.80,4.70,90.5,768.00,38.0
2017-11-23,05:20:00,DRY,7.73,4.83,89.3,768.33,33.4
2017-11-23,05:25:00,DRY,10.65,4.75,91.5,768.00,48.8
2017-11-23,05:30:00,DRY,10.13,4.77,91.0,768.00,38.3
2017-11-23,05:35:00,DRY,13.60,4.90,87.5,768.00,26.4
2017-11-23,05:40:00,DRY,9.00,4.83,87.3,768.00,26.1
2017-11-23,05:45:00,DRY,11.60,4.85,88.0,768.00,27.6
2017-11-23,05:50:00,DRY,7.27,4.87,88.3,768.00,29.1
2017-11-23,05:55:00,DRY,10.50,4.90,88.0,768.00,26.6
2017-11-23,06:00:00,DRY,12.47,5.00,87.7,768.00,25.2
2017-11-23,06:05:00,DRY,12.00,5.05,86.0,768.00,22.4
2017-11-23,06:10:00,DRY,12.03,5.03,87.0,768.00,20.9
2017-11-23,06:15:00,DRY,11.10,5.20,85.0,768.00,16.9
2017-11-23,06:20:00,DRY,10.63,5.00,87.7,768.00,17.1
2017-11-23,06:25:00,DRY,10.60,5.05,87.0,768.00,15.8
2017-11-23,06:30:00,DRY,13.00,4.90,89.0,768.00,16.3
2017-11-23,06:35:00,DRY,10.60,4.90,90.0,768.00,19.0
2017-11-23,06:40:00,DRY,8.67,4.77,91.7,768.00,27.4
2017-11-23,06:45:00,DRY,12.75,4.80,91.0,768.00,22.8
2017-11-23,06:50:00,DRY,6.13,4.70,92.0,768.00,39.8
2017-11-23,06:55:00,DRY,12.90,4.65,93.0,768.00,103.1
2017-11-23,07:00:00,DRY,10.43,4.77,93.0,768.00,54.3
2017-11-23,07:05:00,DRY,9.25,4.80,93.0,768.00,111.0
2017-11-23,07:10:00,DRY,8.03,4.77,94.0,768.00,152.2
2017-11-23,07:15:00,DRY,7.20,4.95,94.0,768.50,165.3
2017-11-23,07:20:00,DRY,9.83,4.93,94.0,768.33,167.0
2017-11-23,07:25:00,DRY,10.80,4.85,94.5,769.00,241.0
2017-11-23,07:30:00,DRY,8.90,4.70,95.0,768.67,211.3
2017-11-23,07:35:00,DRY,9.70,4.55,94.0,768.50,184.9
2017-11-23,07:40:00,DRY,11.17,4.77,86.7,769.00,134.4
2017-11-23,07:45:00,DRY,10.60,4.85,85.5,768.50,116.2
2017-11-23,07:50:00,DRY,12.60,4.73,89.7,769.00,99.6
2017-11-23,07:55:00,DRY,8.65,4.75,90.0,769.00,87.6
2017-11-23,08:00:00,DRY,10.53,4.67,92.0,769.00,94.6
2017-11-23,08:05:00,DRY,10.85,4.70,92.5,769.00,98.3
2017-11-23,08:10:00,DRY,8.57,4.77,93.0,769.00,97.8
2017-11-23,08:15:00,DRY,9.15,4.90,93.5,769.00,121.1
2017-11-23,08:20:00,DRY,8.33,4.87,94.0,769.00,173.4
2017-11-23,08:25:00,DRY,9.85,5.00,94.0,769.00,195.9
2017-11-23,08:30:00,DRY,10.57,5.23,94.0,769.00,213.2
2017-11-23,08:35:00,DRY,9.50,5.20,95.0,769.00,284.6
2017-11-23,08:40:00,DRY,8.40,5.30,95.0,769.00,238.7
2017-11-23,08:45:00,DRY,10.80,5.30,95.0,769.00,241.2
2017-11-23,08:50:00,DRY,10.40,5.23,95.0,769.00,219.3
2017-11-23,08:55:00,DRY,10.25,5.45,95.0,769.00,220.6
2017-11-23,09:00:00,DRY,13.20,5.33,95.0,769.00,237.1
2017-11-23,09:05:00,DRY,8.70,5.55,95.0,769.00,193.4
2017-11-23,09:10:00,DRY,7.90,5.57,95.0,769.67,216.2
2017-11-23,09:15:00,DRY,10.65,5.65,95.0,769.50,202.1
2017-11-23,09:20:00,DRY,8.67,5.77,95.0,770.00,174.3
2017-11-23,09:25:00,DRY,6.10,5.85,95.0,770.00,172.1
2017-11-23,09:30:00,DRY,7.93,6.00,95.0,770.00,185.1
2017-11-23,09:35:00,DRY,8.25,6.00,95.0,770.00,185.8
2017-11-23,09:40:00,DRY,6.00,6.10,95.0,770.00,169.4
2017-11-23,09:45:00,DRY,8.90,6.05,95.0,769.50,158.1
2017-11-23,09:50:00,DRY,9.63,6.10,95.0,769.33,161.2
2017-11-23,09:55:00,DRY,11.65,6.10,95.0,769.50,155.6
2017-11-23,10:00:00,DRY,6.27,6.17,95.0,769.67,169.0
2017-11-23,10:05:00,DRY,8.25,6.20,95.0,769.50,186.1
2017-11-23,10:10:00,WET,5.70,6.10,95.0,770.00,149.5
2017-11-23,10:15:00,DRY,6.30,6.20,95.0,770.00,168.8
2017-11-23,10:20:00,WET,8.97,5.93,95.7,770.00,183.8
2017-11-23,10:25:00,WET,9.95,6.05,95.5,769.50,195.2
2017-11-23,10:30:00,DRY,6.50,6.27,96.0,770.00,163.3
2017-11-23,10:35:00,WET,3.90,6.30,95.5,770.00,146.6
2017-11-23,10:40:00,WET,7.57,6.30,95.7,770.00,152.1
2017-11-23,10:45:00,WET,2.80,6.30,96.0,770.50,173.6
2017-11-23,10:50:00,WET,4.97,6.27,95.3,770.00,226.1
2017-11-23,10:55:00,WET,7.40,6.20,96.0,770.00,156.6
2017-11-23,11:00:00,WET,5.17,6.13,95.3,770.00,176.6
2017-11-23,11:05:00,DRY,8.00,5.85,95.0,770.00,290.4
2017-11-23,11:10:00,DRY,10.67,5.67,95.7,770.00,218.2
2017-11-23,11:15:00,WET,6.55,5.70,95.5,770.00,160.3
2017-11-23,11:20:00,WET,7.77,5.97,95.7,770.00,211.2
2017-11-23,11:25:00,WET,9.20,6.10,96.0,770.00,267.4
2017-11-23,11:30:00,WET,3.77,6.20,96.0,771.00,192.5
2017-11-23,11:35:00,WET,3.15,6.30,96.0,771.00,226.9
2017-11-23,11:40:00,WET,2.80,6.33,96.0,771.00,206.7
2017-11-23,11:45:00,WET,4.10,6.35,96.0,771.00,244.2
2017-11-23,11:50:00,WET,6.20,6.37,96.0,770.33,306.5
2017-11-23,11:55:00,WET,5.25,6.50,96.0,770.00,241.1
2017-11-23,12:00:00,WET,6.53,6.33,95.7,770.00,331.7
2017-11-23,12:05:00,WET,10.85,5.75,95.5,770.00,529.5
2017-11-23,12:10:00,WET,7.10,5.70,95.0,770.00,340.8
2017-11-23,12:15:00,WET,6.40,5.90,95.0,770.00,316.2
2017-11-23,12:20:00,WET,5.13,6.03,95.0,770.00,392.9
2017-11-23,12:25:00,DRY,7.95,6.05,95.0,770.00,422.8
2017-11-23,12:30:00,DRY,6.90,6.00,95.0,770.00,430.8
2017-11-23,12:35:00,DRY,5.50,5.90,95.0,770.00,589.4
2017-11-23,12:40:00,DRY,6.70,5.77,95.0,770.00,418.7
2017-11-23,12:45:00,DRY,8.75,5.70,95.0,770.00,878.0
2017-11-23,12:50:00,DRY,6.87,6.23,92.0,770.00,785.1
2017-11-23,12:55:00,DRY,5.10,6.20,90.0,770.00,490.6
2017-11-23,13:00:00,DRY,5.97,5.87,91.0,770.00,594.4
2017-11-23,13:05:00,DRY,7.00,6.05,90.0,770.00,486.1
2017-11-23,13:10:00,DRY,5.70,6.10,91.0,770.00,471.3
2017-11-23,13:15:00,DRY,8.00,6.20,93.0,770.00,510.2
2017-11-23,13:20:00,DRY,5.03,5.70,94.0,770.00,303.0
2017-11-23,13:25:00,DRY,8.20,5.65,94.0,770.00,350.5
2017-11-23,13:30:00,DRY,6.30,5.60,94.0,770.00,283.5
2017-11-23,13:35:00,DRY,5.60,6.30,94.0,770.00,191.2
2017-11-23,13:40:00,DRY,5.73,5.93,94.3,770.00,394.6
2017-11-23,13:45:00,DRY,7.45,5.50,94.0,770.00,311.1
2017-11-23,13:50:00,DRY,6.47,5.20,94.0,770.00,357.5
2017-11-23,13:55:00,DRY,5.15,5.35,95.0,770.00,380.8
2017-11-23,14:00:00,DRY,6.00,5.67,95.0,770.00,346.9
2017-11-23,14:05:00,DRY,4.30,5.75,95.0,770.00,364.0
2017-11-23,14:10:00,DRY,5.13,5.63,95.0,770.00,305.6
2017-11-23,14:15:00,DRY,5.35,5.85,95.0,770.00,515.8
2017-11-23,14:20:00,DRY,5.83,5.70,95.0,770.00,727.5
2017-11-23,14:25:00,DRY,5.70,5.50,95.0,770.00,754.0
2017-11-23,14:30:00,DRY,5.70,5.40,94.3,770.00,1116.3
2017-11-23,14:35:00,DRY,5.65,5.50,93.5,770.00,1007.5
2017-11-23,14:40:00,DRY,5.60,5.77,92.7,770.00,622.4
2017-11-23,14:45:00,DRY,4.70,6.05,85.0,770.00,860.1
2017-11-23,14:50:00,DRY,5.20,6.47,84.7,770.00,725.7
2017-11-23,14:55:00,DRY,5.80,6.20,85.0,770.00,473.5
2017-11-23,15:00:00,DRY,5.20,5.80,90.7,770.00,438.4
2017-11-23,15:05:00,DRY,5.25,5.65,92.0,770.00,512.2
2017-11-23,15:10:00,DRY,5.90,5.67,92.0,770.00,501.8
2017-11-23,15:15:00,DRY,5.70,5.80,92.5,770.00,593.0
2017-11-23,15:20:00,DRY,4.83,5.80,92.3,770.00,510.2
2017-11-23,15:25:00,DRY,6.90,5.80,92.5,770.00,610.8
2017-11-23,15:30:00,DRY,6.80,5.97,92.7,770.00,354.6
2017-11-23,15:35:00,DRY,6.05,5.75,93.5,770.00,239.8
2017-11-23,15:40:00,DRY,5.50,5.47,93.7,770.00,166.4
2017-11-23,15:45:00,DRY,5.10,5.60,94.0,770.00,270.4
2017-11-23,15:50:00,DRY,6.33,5.53,93.7,770.00,324.0
2017-11-23,15:55:00,DRY,6.90,5.70,93.5,770.00,465.4
2017-11-23,16:00:00,DRY,5.83,5.83,90.7,769.67,430.7
2017-11-23,16:05:00,DRY,6.35,5.75,86.0,770.00,444.6
2017-11-23,16:10:00,DRY,6.10,5.77,88.7,770.00,366.7
2017-11-23,16:15:00,DRY,5.30,5.85,89.0,770.00,355.6
2017-11-23,16:20:00,DRY,6.37,5.90,84.0,770.00,304.8
2017-11-23,16:25:00,DRY,5.05,5.95,80.0,770.00,303.3
2017-11-23,16:30:00,DRY,6.17,6.07,82.3,770.00,302.7
2017-11-23,16:35:00,DRY,5.90,5.80,89.0,770.00,175.8
2017-11-23,16:40:00,DRY,5.40,5.80,85.0,770.00,202.8
2017-11-23,16:45:00,DRY,6.00,5.50,88.5,770.00,181.6
2017-11-23,16:50:00,DRY,4.00,5.83,82.3,770.00,189.8
2017-11-23,16:55:00,DRY,5.90,6.40,69.0,770.00,180.8
2017-11-23,17:00:00,DRY,5.67,6.43,66.7,770.00,173.3
2017-11-23,17:05:00,DRY,4.80,6.00,69.5,770.00,150.9
2017-11-23,17:10:00,DRY,4.93,6.70,59.7,770.00,119.2
2017-11-23,17:15:00,DRY,7.10,6.30,66.5,770.00,103.7
2017-11-23,17:20:00,DRY,6.47,7.87,36.0,770.00,90.9
2017-11-23,17:25:00,DRY,5.55,8.45,23.0,770.00,83.8
2017-11-23,17:30:00,DRY,5.37,8.73,22.3,770.00,78.0
2017-11-23,17:35:00,DRY,5.70,8.80,17.0,770.00,73.1
2017-11-23,17:40:00,DRY,6.60,8.80,18.0,770.00,62.6
2017-11-23,17:45:00,DRY,5.25,8.80,17.0,770.00,47.4
2017-11-23,17:50:00,DRY,6.93,8.50,26.0,770.00,31.4
2017-11-23,17:55:00,DRY,8.10,8.25,23.5,770.00,25.0
2017-11-23,18:00:00,DRY,6.07,8.43,17.7,770.00,22.3
2017-11-23,18:05:00,DRY,3.75,8.85,15.5,770.00,20.4
2017-11-23,18:10:00,DRY,4.97,8.87,14.7,770.00,14.2
2017-11-23,18:15:00,DRY,6.30,8.55,23.0,770.00,10.1
2017-11-23,18:20:00,DRY,6.20,8.67,14.0,770.00,6.8
2017-11-23,18:25:00,DRY,4.00,8.75,15.0,770.00,4.0
2017-11-23,18:30:00,DRY,5.40,8.70,18.3,770.00,1.6
2017-11-23,18:35:00,DRY,4.70,8.30,28.5,770.00,1.3
2017-11-23,18:40:00,DRY,6.67,8.30,24.3,770.33,1.4
2017-11-23,18:45:00,DRY,5.40,8.30,21.5,770.00,1.2
2017-11-23,18:50:00,DRY,6.03,7.77,40.0,770.67,1.5
2017-11-23,18:55:00,DRY,6.55,7.35,43.0,770.50,1.8
2017-11-23,19:00:00,DRY,6.23,7.70,32.7,771.00,1.1
2017-11-23,19:05:00,DRY,5.50,6.35,56.0,771.00,1.3
2017-11-23,19:10:00,DRY,5.43,7.20,36.3,771.00,1.6
2017-11-23,19:15:00,DRY,7.70,8.10,23.0,770.00,1.1
2017-11-23,19:20:00,DRY,5.73,9.20,13.7,771.00,1.1
2017-11-23,19:25:00,DRY,5.20,9.50,12.5,771.00,1.2
2017-11-23,19:30:00,DRY,5.40,9.70,11.7,771.00,0.8
2017-11-23,19:35:00,DRY,7.25,9.55,11.5,771.00,1.3
2017-11-23,19:40:00,DRY,4.37,9.37,12.0,771.00,1.0
2017-11-23,19:45:00,DRY,5.50,9.20,12.0,771.00,1.2